Weather History for Asheville, NC

Change the Weather History Date:

Friday, September 10, 2010

  Actual Average Record
Temperature  
Mean Temperature 73 °F 68 °F  
Max Temperature 83 °F 79 °F 91 °F (1897)
Min Temperature 63 °F 58 °F 40 °F (1998)
Degree Days  
Heating Degree Days 0 1  
Month to date heating degree days 2 2  
Since 1 July heating degree days 2 4  
Cooling Degree Days 8 4  
Month to date cooling degree days 46 50  
Year to date cooling degree days 1123 807  
Growing Degree Days 22 (Base 50)    
Moisture  
Dew Point 57 °F    
Average Humidity 67    
Maximum Humidity 93    
Minimum Humidity 40    
Precipitation  
Precipitation T in 0.13 in 2.06 in (1888)
Month to date precipitation 0.02 1.34  
Year to date precipitation 30.44 32.95  
Snow  
Snow 0.00 in 0.00 in 0.00 in ()
Month to date snowfall 0.0 0.0  
Since 1 July snowfall 0.0 0.0  
Since 1 September snowfall 0.0 0.0  
Snow Depth 0.00 in    
Sea Level Pressure  
Sea Level Pressure 29.96 in    
Wind  
Wind Speed 4 mph (NNW)    
Max Wind Speed 16 mph    
Max Gust Speed 20 mph    
Visibility 10 miles    
Events Rain    
T = Trace of Precipitation, MM = Missing Value Source: NWS Daily Summary

Daily Weather History Graph

Daily Weather History Graph

Search for Another Location

Airport:

Trip Planner

Search our weather history database for the weather conditions in past years. The results will help you decide how hot, cold, wet, or windy it might be!

Date:

Astronomy

Sep. 10, 2010 Rise Set
Actual Time 7:09 AM EDT 7:44 PM EDT
Civil Twilight 6:43 AM EDT 8:10 PM EDT
Nautical Twilight 6:13 AM EDT 8:40 PM EDT
Astronomical Twilight 5:42 AM EDT 9:11 PM EDT
Moon 9:44 AM EDT (9/10) 8:53 PM EDT (9/10)
Length of Visible Light 13h 26m
Length of Day
12h 35m
Waxing Crescent, 7% of the Moon is Illuminated
Sep 10
Waxing Crescent
Sep 15
First Quarter
Sep 23
Full
Sep 30
Last Quarter
Oct 7
New

Hourly Weather History & Observations

Time (EDT) Temp. Heat Index Dew Point Humidity Pressure Visibility Wind Dir Wind Speed Gust Speed Precip Events Conditions
12:54 AM 66.0 °F - 55.0 °F 68% 29.95 in 10.0 mi NNW 4.6 mph - N/A   Clear
1:54 AM 66.9 °F - 55.0 °F 66% 29.94 in 10.0 mi Calm Calm - N/A   Overcast
2:54 AM 66.0 °F - 55.0 °F 68% 29.94 in 10.0 mi North 5.8 mph - N/A   Overcast
3:54 AM 64.0 °F - 55.9 °F 75% 29.94 in 10.0 mi NW 4.6 mph - 0.00 in Rain Light Rain
4:54 AM 64.9 °F - 55.9 °F 73% 29.94 in 10.0 mi North 4.6 mph - 0.00 in   Overcast
5:54 AM 64.9 °F - 55.9 °F 73% 29.95 in 10.0 mi Calm Calm - N/A   Overcast
6:54 AM 63.0 °F - 57.0 °F 81% 29.97 in 10.0 mi Calm Calm - N/A   Overcast
7:54 AM 64.0 °F - 57.0 °F 78% 29.99 in 10.0 mi Calm Calm - N/A   Overcast
8:54 AM 64.0 °F - 57.0 °F 78% 30.00 in 10.0 mi Calm Calm - N/A   Overcast
9:54 AM 66.0 °F - 55.9 °F 70% 29.99 in 10.0 mi Calm Calm - N/A   Mostly Cloudy
10:54 AM 71.6 °F - 55.4 °F 57% 30.05 in 10.0 mi Calm Calm - N/A   Scattered Clouds
11:54 AM 75.9 °F - 52.0 °F 43% 29.97 in 10.0 mi Variable 4.6 mph - N/A   Clear
12:54 PM 79.0 °F - 55.0 °F 44% 29.95 in 10.0 mi SSE 4.6 mph - N/A   Clear
1:54 PM 81.0 °F 80.8 °F 55.9 °F 42% 29.93 in 10.0 mi Variable 3.5 mph - N/A   Clear
2:54 PM 82.9 °F 82.1 °F 55.9 °F 39% 29.92 in 10.0 mi NNW 10.4 mph - N/A   Partly Cloudy
3:54 PM 79.0 °F - 55.0 °F 44% 29.93 in 10.0 mi NNW 15.0 mph 19.6 mph N/A   Mostly Cloudy
4:54 PM 75.9 °F - 55.9 °F 50% 29.93 in 10.0 mi North 11.5 mph - N/A   Mostly Cloudy
5:54 PM 75.0 °F - 57.9 °F 55% 29.93 in 10.0 mi NNW 8.1 mph - N/A   Mostly Cloudy
6:54 PM 73.0 °F - 59.0 °F 61% 29.94 in 10.0 mi NNW 8.1 mph - 0.00 in Rain Light Rain
7:54 PM 71.1 °F - 59.0 °F 66% 29.94 in 10.0 mi NNW 5.8 mph - 0.00 in   Clear
8:54 PM 69.1 °F - 61.0 °F 75% 29.95 in 10.0 mi Calm Calm - N/A   Scattered Clouds
9:54 PM 68.0 °F - 62.1 °F 81% 29.96 in 10.0 mi Calm Calm - N/A   Clear
10:54 PM 66.9 °F - 62.1 °F 84% 29.95 in 10.0 mi Calm Calm - N/A   Clear
11:54 PM 64.4 °F - 62.6 °F 94% 30.02 in 10.0 mi Calm Calm - N/A   Clear